Marshfield, WI

8:54 AM CDT on October 19, 2017 (GMT -0500)
Marshfield Municipal

Weather History for KMFI - December, 2011

Change the Weather History Date:

Friday, December 2, 2011

  Actual Average Record
Temperature  
Mean Temperature 22 °F -  
Max Temperature 33 °F 31 °F 61 °F (1982)
Min Temperature 12 °F 15 °F -19 °F (1919)
Degree Days  
Heating Degree Days 42    
Moisture  
Dew Point 14 °F    
Average Humidity 69    
Maximum Humidity 88    
Minimum Humidity 40    
Precipitation  
Precipitation 0.00 in - - ()
Sea Level Pressure  
Sea Level Pressure 30.35 in    
Wind  
Wind Speed 6 mph (SSW)    
Max Wind Speed 13 mph    
Max Gust Speed -    
Visibility 10 miles    
Events      
Averages and records for this station are not official NWS values.
T = Trace of Precipitation, MM = Missing Value Source: NWS Daily Summary

Daily Weather History Graph

Daily Weather History Graph

Search for Another Location

Airport or City:

Trip Planner

Search our weather history database for the weather conditions in past years. The results will help you decide how hot, cold, wet, or windy it might be!

Date:

Astronomy

Dec. 02, 2011 Rise Set
Actual Time 7:18 AM CST 4:21 PM CST
Civil Twilight 6:45 AM CST 4:54 PM CST
Nautical Twilight 6:09 AM CST 5:30 PM CST
Astronomical Twilight 5:33 AM CST 6:06 PM CST
Moon 12:15 PM CST (12/2) No Moon Set
Length of Visible Light 10h 09m
Length of Day
9h 03m
First Quarter, 53% of the Moon is Illuminated
Dec 2
First Quarter
Dec 10
Full
Dec 17
Last Quarter
Dec 24
New
Jan 1
First Quarter

Hourly Weather History & Observations

Time (CST) Temp. Windchill Dew Point Humidity Pressure Visibility Wind Dir Wind Speed Gust Speed Precip Events Conditions
12:54 AM 17.1 °F 8.7 °F 12.0 °F 81% 30.40 in 10.0 mi NNW 5.8 mph - N/A   Clear
1:54 AM 16.0 °F 8.8 °F 10.9 °F 81% 30.40 in 10.0 mi NNW 4.6 mph - N/A   Clear
2:54 AM 15.1 °F 7.7 °F 10.9 °F 84% 30.41 in 10.0 mi NNW 4.6 mph - N/A   Clear
3:54 AM 15.1 °F 9.4 °F 10.0 °F 80% 30.41 in 10.0 mi WNW 3.5 mph - N/A   Clear
5:54 AM 14.0 °F - 9.0 °F 80% 30.41 in 10.0 mi Calm Calm - N/A   Clear
6:54 AM 12.9 °F - 8.1 °F 81% 30.42 in 10.0 mi Calm Calm - N/A   Clear
7:54 AM 14.0 °F 6.5 °F 10.9 °F 88% 30.42 in 9.0 mi SSW 4.6 mph - N/A   Clear
8:54 AM 19.0 °F 10.0 °F 15.1 °F 85% 30.43 in 10.0 mi SSW 6.9 mph - N/A   Clear
9:54 AM 23.0 °F 14.7 °F 17.1 °F 78% 30.43 in 10.0 mi SSW 6.9 mph - N/A   Clear
10:54 AM 26.1 °F 16.8 °F 15.1 °F 63% 30.42 in 10.0 mi SSW 9.2 mph - N/A   Clear
11:54 AM 28.9 °F 19.2 °F 15.1 °F 56% 30.39 in 10.0 mi South 11.5 mph - N/A   Clear
12:54 PM 30.9 °F 21.7 °F 14.0 °F 50% 30.36 in 10.0 mi SSW 11.5 mph - N/A   Clear
1:54 PM 33.1 °F 24.4 °F 12.9 °F 43% 30.34 in 10.0 mi SSW 11.5 mph - N/A   Clear
2:54 PM 33.1 °F 23.9 °F 10.9 °F 40% 30.32 in 10.0 mi SSW 12.7 mph - N/A   Clear
3:54 PM 30.9 °F 22.8 °F 16.0 °F 54% 30.31 in 10.0 mi South 9.2 mph - N/A   Clear
4:54 PM 27.0 °F 19.5 °F 16.0 °F 63% 30.31 in 10.0 mi South 6.9 mph - N/A   Clear
5:54 PM 25.0 °F 17.1 °F 15.1 °F 66% 30.30 in 10.0 mi South 6.9 mph - N/A   Clear
6:54 PM 25.0 °F 17.1 °F 15.1 °F 66% 30.30 in 10.0 mi South 6.9 mph - N/A   Clear
7:54 PM 26.1 °F 16.8 °F 15.1 °F 63% 30.28 in 10.0 mi South 9.2 mph - N/A   Clear
8:54 PM 27.0 °F 17.3 °F 16.0 °F 63% 30.25 in 10.0 mi SSE 10.4 mph - N/A   Clear
9:54 PM 27.0 °F 19.5 °F 17.1 °F 66% 30.23 in 10.0 mi SSE 6.9 mph - N/A   Clear
10:54 PM 27.0 °F 20.5 °F 19.0 °F 72% 30.22 in 10.0 mi SSE 5.8 mph - N/A   Overcast
11:54 PM 30.0 °F 21.1 °F 23.0 °F 75% 30.20 in 10.0 mi South 10.4 mph - N/A   Overcast